Georgetown, DE

6:07 PM EST on November 23, 2017 (GMT -0500)
Sussex County

Weather History for KGED - April, 2014

Change the Weather History Date:

Wednesday, April 16, 2014

  Actual Average Record
Temperature  
Mean Temperature 42 °F 54 °F  
Max Temperature 49 °F 65 °F 89 °F (2002)
Min Temperature 34 °F 44 °F 23 °F (1950)
Degree Days  
Heating Degree Days 23 11  
Month to date heating degree days 166 216  
Since 1 July heating degree days 4261 4128  
Cooling Degree Days 0 1  
Month to date cooling degree days 12 6  
Year to date cooling degree days 12 8  
Moisture  
Dew Point 24 °F    
Average Humidity 58    
Maximum Humidity 82    
Minimum Humidity 34    
Precipitation  
Precipitation 0.02 in 0.12 in 1.36 in (1983)
Month to date precipitation 1.99 2.13  
Year to date precipitation 12.53 11.89  
Sea Level Pressure  
Sea Level Pressure 30.29 in    
Wind  
Wind Speed 9 mph (North)    
Max Wind Speed 20 mph    
Max Gust Speed 26 mph    
Visibility 9 miles    
Events Rain , Snow    
T = Trace of Precipitation, MM = Missing Value Source: NWS Daily Summary

Daily Weather History Graph

Daily Weather History Graph

Search for Another Location

Airport or City:

Trip Planner

Search our weather history database for the weather conditions in past years. The results will help you decide how hot, cold, wet, or windy it might be!

Date:

Astronomy

Apr. 16, 2014 Rise Set
Actual Time 6:23 AM EDT 7:39 PM EDT
Civil Twilight 5:56 AM EDT 8:06 PM EDT
Nautical Twilight 5:23 AM EDT 8:39 PM EDT
Astronomical Twilight 4:49 AM EDT 9:14 PM EDT
Moon 9:19 PM EDT (4/16) 7:10 AM EDT (4/16)
Length of Visible Light 14h 10m
Length of Day
13h 15m
Full, 98% of the Moon is Illuminated
Apr 16
Full
Apr 22
Last Quarter
Apr 29
New
May 6
First Quarter
May 14
Full

Hourly Weather History & Observations

Time (EDT) Temp. Windchill Dew Point Humidity Pressure Visibility Wind Dir Wind Speed Gust Speed Precip Events Conditions
12:02 AM 36.0 °F 31.1 °F 33.1 °F 89% 29.97 in 4.0 mi NW 5.8 mph - 0.01 in Snow Light Snow
12:07 AM 35.1 °F 27.9 °F 32.0 °F 89% 29.98 in 2.5 mi NW 9.2 mph - 0.03 in Snow Light Snow
12:27 AM 35.1 °F 27.4 °F 32.0 °F 89% 29.97 in 3.0 mi NNW 10.4 mph 17.3 mph 0.10 in Snow Light Snow
12:34 AM 35.1 °F 27.4 °F 32.0 °F 89% 30.00 in 4.0 mi NNW 10.4 mph 18.4 mph 0.12 in Rain Rain
12:54 AM 35.1 °F 29.3 °F 32.0 °F 89% 29.99 in 4.0 mi North 6.9 mph - 0.18 in Rain Heavy Rain
1:54 AM 36.0 °F 30.3 °F 32.0 °F 86% 30.01 in 10.0 mi NNW 6.9 mph - 0.03 in   Scattered Clouds
2:54 AM 37.0 °F 32.4 °F 28.9 °F 73% 30.04 in 10.0 mi Variable 5.8 mph - N/A   Clear
3:54 AM 37.0 °F 30.4 °F 24.1 °F 59% 30.11 in 10.0 mi NNW 9.2 mph 17.3 mph N/A   Clear
4:54 AM 35.1 °F 29.3 °F 23.0 °F 61% 30.15 in 10.0 mi NNW 6.9 mph - N/A   Clear
5:54 AM 34.0 °F 26.6 °F 19.9 °F 56% 30.20 in 10.0 mi North 9.2 mph - N/A   Clear
6:54 AM 34.0 °F 25.5 °F 19.0 °F 54% 30.26 in 10.0 mi North 11.5 mph - N/A   Clear
7:54 AM 35.1 °F 27.9 °F 18.0 °F 50% 30.30 in 10.0 mi North 9.2 mph - N/A   Clear
8:54 AM 36.0 °F 27.1 °F 15.1 °F 43% 30.32 in 10.0 mi North 13.8 mph 23.0 mph N/A   Clear
9:54 AM 37.9 °F 30.0 °F 15.1 °F 39% 30.37 in 10.0 mi North 12.7 mph 23.0 mph N/A   Clear
10:54 AM 39.9 °F 31.8 °F 15.1 °F 36% 30.40 in 10.0 mi North 15.0 mph 21.9 mph N/A   Clear
11:54 AM 41.0 °F 33.9 °F 15.1 °F 35% 30.42 in 10.0 mi North 12.7 mph 20.7 mph N/A   Clear
12:54 PM 43.0 °F 37.7 °F 17.1 °F 35% 30.43 in 10.0 mi NNW 9.2 mph 21.9 mph N/A   Clear
1:54 PM 46.9 °F - 19.9 °F 34% 30.43 in 10.0 mi NNW 10.4 mph 19.6 mph N/A   Clear
2:54 PM 46.9 °F - 19.9 °F 34% 30.41 in 10.0 mi NNE 11.5 mph - N/A   Clear
3:54 PM 48.0 °F - 21.9 °F 36% 30.41 in 10.0 mi NE 17.3 mph 21.9 mph N/A   Clear
4:54 PM 48.0 °F - 21.0 °F 34% 30.42 in 10.0 mi NNE 16.1 mph 23.0 mph N/A   Clear
5:54 PM 46.9 °F - 19.9 °F 34% 30.43 in 10.0 mi NNE 11.5 mph - N/A   Clear
6:54 PM 46.9 °F - 21.0 °F 36% 30.44 in 10.0 mi North 6.9 mph - N/A   Clear
7:54 PM 45.0 °F 43.5 °F 23.0 °F 42% 30.47 in 10.0 mi North 3.5 mph - N/A   Clear
8:54 PM 39.9 °F 36.7 °F 28.9 °F 65% 30.51 in 10.0 mi East 4.6 mph - N/A   Clear
9:54 PM 39.0 °F - 28.9 °F 67% 30.53 in 10.0 mi Calm Calm - N/A   Clear
10:54 PM 37.9 °F - 28.9 °F 70% 30.53 in 10.0 mi Calm Calm - N/A   Clear
11:54 PM 35.1 °F - 30.0 °F 82% 30.55 in 10.0 mi Calm Calm - N/A   Clear